Westerly, RI

1:58 PM EDT on August 17, 2017 (GMT -0400)
Westerly State

Weather History for KWST - November, 2012

Change the Weather History Date:

Wednesday, November 7, 2012

  Actual Average (KGON) Record (KGON)
Temperature  
Mean Temperature 38 °F -  
Max Temperature 42 °F 54 °F 67 °F (1975)
Min Temperature 33 °F 37 °F 21 °F (1962)
Degree Days  
Heating Degree Days 28    
Moisture  
Dew Point 32 °F    
Average Humidity 86    
Maximum Humidity 100    
Minimum Humidity 67    
Precipitation  
Precipitation 0.26 in - - ()
Sea Level Pressure  
Sea Level Pressure 29.80 in    
Wind  
Wind Speed 13 mph (NNE)    
Max Wind Speed 25 mph    
Max Gust Speed 43 mph    
Visibility 6 miles    
Events Rain , Snow    
Averages and records for this station are not official NWS values.
T = Trace of Precipitation, MM = Missing Value Source: NWS Daily Summary

Daily Weather History Graph

Daily Weather History Graph

Search for Another Location

Airport or City:

Trip Planner

Search our weather history database for the weather conditions in past years. The results will help you decide how hot, cold, wet, or windy it might be!

Date:

Astronomy

Nov. 07, 2012 Rise Set
Actual Time 6:26 AM EST 4:34 PM EST
Civil Twilight 5:57 AM EST 5:04 PM EST
Nautical Twilight 5:24 AM EST 5:36 PM EST
Astronomical Twilight 4:51 AM EST 6:09 PM EST
Moon No Moon Rise 12:46 PM EST (11/7)
Length of Visible Light 11h 06m
Length of Day
10h 08m
Last Quarter, 43% of the Moon is Illuminated
Nov 7
Last Quarter
Nov 13
New
Nov 20
First Quarter
Nov 28
Full
Dec 6
Last Quarter

Hourly Weather History & Observations

Time (EST) Temp. Windchill Dew Point Humidity Pressure Visibility Wind Dir Wind Speed Gust Speed Precip Events Conditions
12:53 AM 34.0 °F 28.8 °F 27.0 °F 75% 30.09 in 10.0 mi NNE 5.8 mph - N/A   Clear
1:53 AM 35.1 °F 30.1 °F 27.0 °F 72% 30.09 in 10.0 mi North 5.8 mph - N/A   Clear
2:53 AM 36.0 °F 29.0 °F 28.0 °F 73% 30.06 in 10.0 mi NNE 9.2 mph - N/A   Scattered Clouds
3:53 AM 37.0 °F 30.4 °F 28.0 °F 70% 30.00 in 10.0 mi NNE 9.2 mph - N/A   Clear
4:53 AM 39.0 °F 31.8 °F 30.0 °F 70% 29.99 in 10.0 mi NNE 11.5 mph 20.7 mph N/A   Mostly Cloudy
5:53 AM 39.9 °F 32.9 °F 30.0 °F 68% 29.96 in 10.0 mi NNE 11.5 mph 19.6 mph N/A   Partly Cloudy
6:53 AM 39.9 °F 31.8 °F 30.0 °F 68% 29.93 in 10.0 mi NNE 15.0 mph 25.3 mph N/A   Scattered Clouds
7:53 AM 39.9 °F 32.1 °F 30.0 °F 68% 29.93 in 10.0 mi North 13.8 mph 21.9 mph N/A   Overcast
8:53 AM 39.9 °F 32.5 °F 30.0 °F 68% 29.91 in 10.0 mi NNE 12.7 mph 23.0 mph N/A   Overcast
9:53 AM 41.0 °F 34.7 °F 30.9 °F 67% 29.89 in 10.0 mi North 10.4 mph 21.9 mph N/A   Overcast
10:53 AM 42.1 °F 34.9 °F 32.0 °F 67% 29.86 in 10.0 mi North 13.8 mph 26.5 mph 0.00 in Rain Light Rain
11:28 AM 41.0 °F 32.8 °F 33.8 °F 76% 29.84 in 6.0 mi NNE 16.1 mph 24.2 mph 0.00 in Rain Light Rain
11:53 AM 39.0 °F 31.0 °F 34.0 °F 82% 29.82 in 4.0 mi North 13.8 mph 32.2 mph 0.02 in Rain Light Rain
12:48 PM 37.4 °F 28.2 °F 35.6 °F 93% 29.78 in 4.0 mi NNE 16.1 mph 31.1 mph 0.05 in Rain Light Rain
12:53 PM 37.0 °F 26.4 °F 35.1 °F 93% 29.78 in 4.0 mi NNE 20.7 mph 31.1 mph 0.05 in Rain Light Rain
1:53 PM 36.0 °F 28.0 °F 35.1 °F 97% 29.76 in 3.0 mi NNE 11.5 mph 19.6 mph 0.05 in Rain Light Rain
2:53 PM 35.1 °F 25.5 °F 34.0 °F 96% 29.74 in 6.0 mi North 15.0 mph 24.2 mph 0.02 in Rain Light Rain
3:49 PM 35.6 °F 25.2 °F 33.8 °F 93% 29.74 in 2.0 mi NNE 18.4 mph 28.8 mph 0.03 in Snow Light Snow
3:53 PM 34.0 °F 24.2 °F 33.1 °F 96% 29.74 in 1.8 mi NNE 15.0 mph 28.8 mph 0.04 in Snow Light Snow
4:21 PM 33.8 °F 23.9 °F 32.0 °F 93% 29.73 in 1.2 mi NNE 15.0 mph 26.5 mph 0.04 in Snow Light Snow
4:53 PM 33.1 °F 22.2 °F 32.0 °F 96% 29.71 in 1.5 mi NNE 17.3 mph 28.8 mph 0.06 in Snow Light Snow
5:53 PM 33.1 °F 23.4 °F 32.0 °F 96% 29.72 in 1.2 mi North 13.8 mph 24.2 mph 0.02 in Snow Light Snow
6:27 PM 33.8 °F 23.5 °F 32.0 °F 93% 29.72 in 1.8 mi North 16.1 mph 32.2 mph 0.00 in Snow Light Snow
6:34 PM 33.8 °F 22.5 °F 32.0 °F 93% 29.71 in 2.0 mi North 19.6 mph 32.2 mph 0.00 in Snow Light Snow
6:49 PM 33.8 °F 22.5 °F 32.0 °F 93% 29.71 in 1.8 mi North 19.6 mph 31.1 mph 0.00 in Snow Light Snow
6:53 PM 33.1 °F 20.9 °F 32.0 °F 96% 29.70 in 2.0 mi North 21.9 mph 34.5 mph 0.00 in Snow Light Snow
7:07 PM 33.8 °F 22.5 °F 32.0 °F 93% 29.69 in 4.0 mi North 19.6 mph 35.7 mph 0.00 in Snow Light Snow
7:53 PM 33.1 °F 21.2 °F 32.0 °F 96% 29.68 in 5.0 mi North 20.7 mph 38.0 mph 0.00 in Snow Light Snow
8:33 PM 33.8 °F 21.6 °F 33.8 °F 100% 29.67 in 10.0 mi North 23.0 mph 38.0 mph 0.00 in   Overcast
8:53 PM 33.1 °F 20.9 °F 33.1 °F 100% 29.66 in 10.0 mi North 21.9 mph 42.6 mph 0.00 in   Overcast
9:53 PM 34.0 °F 22.1 °F 33.1 °F 96% 29.64 in 10.0 mi North 21.9 mph 34.5 mph 0.00 in   Overcast
10:53 PM 34.0 °F 22.7 °F 33.1 °F 96% 29.62 in 10.0 mi North 19.6 mph 36.8 mph 0.00 in Rain Light Rain
11:53 PM 34.0 °F 21.3 °F 34.0 °F 100% 29.61 in 10.0 mi North 25.3 mph 39.1 mph 0.00 in   Overcast